Flag for U.S.A. Weather past 2 weeks in Waterbury, Connecticut, U.S.A.

Now
81 °F

Broken clouds.


Feels Like: 81 °F
Forecast: 65 / 84 °F
Wind: 9 mph from Northwest

Location: Oxford

Current Time: Aug 1, 2015 at 4:51:07 PM

Latest Report: Aug 1, 2015 at 3:45 PM


Visibility: 10 mi

Pressure: 29.80 "Hg

Humidity: 48%

Dew point: 59 °F

Location of WaterburyLocation

Historic Weather in Waterbury — Graph

°F

Waterbury temperature yesterday

Maximum temperature yesterday: 82 °F (at 1:50 PM)
Minimum temperature yesterday: 66 °F (at 5:15 AM)
Average temperature yesterday: 73 °F

Past Weeks' High & Low Weather Summary

 TemperatureHumidityPressure
High90 °F (Jul 29, 3:50 PM)83% (Jul 19, 7:50 AM)30.10 "Hg (Jul 19, 7:50 AM)
Low55 °F (Jul 23, 3:55 AM)40% (Jul 31, 3:50 PM)29.62 "Hg (Jul 21, 6:50 PM)
Average72 °F69%29.91 "Hg
* Reported Jul 17 2:52 PM — Aug 1 2:50 PM, Waterbury, Weather by CustomWeather, © 2015

Note: Actual official high and low records may vary slightly from our data, if they occured in-between our weather recording intervals... More about our weather records

Advertising

Waterbury weather history for previous 24 hours

 ConditionsComfort  
Time TempWeatherWind HumidityBarometerVisibility
2:50 PM
Sat, Aug 1
84 °FScattered clouds.9 mph43%29.80 "Hg10 mi
1:45 PM82 °FScattered clouds.9 mph48%29.82 "Hg10 mi
12:50 PM81 °FScattered clouds.6 mph54%29.83 "Hg10 mi
11:52 AM81 °FPassing clouds.5 mph54%29.84 "Hg10 mi
10:52 AM79 °FPassing clouds.6 mph61%29.83 "Hg10 mi
9:52 AM75 °FPassing clouds.5 mph65%29.83 "Hg10 mi
8:52 AM73 °FPassing clouds.3 mph65%29.83 "Hg10 mi
7:52 AM72 °FPassing clouds.No wind69%29.81 "Hg10 mi
6:52 AM70 °FScattered clouds.No wind64%29.81 "Hg10 mi
5:52 AM66 °FPassing clouds.No wind68%29.80 "Hg10 mi
5:35 AM64 °FOvercast.3 mph73%29.80 "Hg10 mi
5:15 AM64 °FPassing clouds.No wind73%29.80 "Hg10 mi
4:55 AM64 °FPassing clouds.No wind73%29.81 "Hg10 mi
4:35 AM64 °FPassing clouds.No wind73%29.81 "Hg10 mi
4:15 AM66 °FPassing clouds.No wind68%29.81 "Hg10 mi
3:55 AM70 °FPassing clouds.No wind60%29.81 "Hg10 mi
3:35 AM70 °FMostly cloudy.3 mph60%29.82 "Hg10 mi
3:15 AM70 °FPassing clouds.No wind60%29.82 "Hg10 mi
2:55 AM68 °FPassing clouds.No wind64%29.82 "Hg10 mi
2:35 AM68 °FPassing clouds.3 mph64%29.83 "Hg10 mi
2:15 AM68 °FClear.No wind64%29.83 "Hg10 mi
1:55 AM66 °FClear.No wind68%29.84 "Hg10 mi
1:35 AM64 °FClear.No wind68%29.84 "Hg10 mi
1:15 AM64 °FClear.No wind73%29.85 "Hg10 mi
12:55 AM64 °FClear.No wind73%29.86 "Hg10 mi
12:35 AM64 °FClear.No wind73%29.85 "Hg10 mi
11:55 PM
Fri, Jul 31
66 °FClear.No wind73%29.87 "Hg10 mi
11:15 PM66 °FClear.No wind73%29.86 "Hg10 mi
10:55 PM66 °FClear.No wind73%29.86 "Hg10 mi
10:35 PM66 °FClear.No wind73%29.86 "Hg10 mi
10:15 PM66 °FClear.No wind73%29.86 "Hg10 mi
9:55 PM66 °FClear.No wind73%29.86 "Hg10 mi
9:35 PM68 °FClear.No wind69%29.86 "Hg10 mi
9:15 PM68 °FClear.No wind69%29.85 "Hg10 mi
8:55 PM70 °FSunny.No wind64%29.85 "Hg10 mi
7:52 PM77 °FSunny.6 mph54%29.84 "Hg10 mi
6:52 PM81 °FSunny.6 mph45%29.85 "Hg10 mi
5:50 PM82 °FPassing clouds.8 mph42%29.84 "Hg10 mi
4:55 PM82 °FPassing clouds.8 mph42%29.85 "Hg10 mi
Weather by CustomWeather, © 2015

See weather overviewHow to use our weather pages